Location: Colconda
(10.2500°N, 61.4333°W)
Time: 07:22:43
(UTC+00:00)

Daily predictions for brighter satellites

Satellite Brightness Start Highest point End
(mag) Time Altitude Azimuth Time Altitude Azimuth Time Altitude Azimuth
GPS 2-14 Rocket1 3.0 22:46:15 10° WNW 22:49:58 53° NNE 22:53:41 10° E
Lacrosse 5 rocket 3.1 22:49:01 10° SSE 22:51:13 14° ESE 22:53:22 10° E
Cosmos 1484 Rocket 3.1 22:48:15 10° S 22:52:16 74° W 22:56:13 10° NNW
HJ-1C 4.5 22:50:48 10° SE 22:53:39 26° ENE 22:56:27 10° NNE
ATLAS 5 CENTAUR R/B 4.2 22:53:23 10° NNE 22:56:39 14° ENE 22:59:57 10° E
ASTRO E2 2.7 22:53:01 10° SW 22:56:59 68° SSE 23:00:58 10° ENE
Cosmos 1733 Rocket 3.7 22:54:10 10° SSE 22:58:11 34° E 23:02:10 10° NNE
CZ-4C R/B 4.4 22:51:43 10° NW 22:58:48 38° WSW 23:05:59 10° S
Coronas F rocket 1.5 22:56:58 10° SSE 22:59:30 45° E 23:02:02 10° NNE
Cosmos 1340 Rocket 3.3 22:56:42 10° SSW 23:00:37 66° W 23:04:35 10° N
Abrixas rocket 4.1 22:58:37 10° N 23:01:07 19° NE 23:03:27 11° E
Spot 2 Rocket 3.8 22:57:30 10° SSE 23:02:23 48° ENE 23:07:16 10° N
Cosmos 494 Rocket 4.4 22:57:39 10° NNW 23:02:49 66° WSW 23:07:55 10° S
XTE 3.7 23:04:06 10° SW 23:06:58 35° SSE 23:09:14 14° E
ATLAS 5 CENTAUR R/B 2.9 23:05:45 10° SW 23:08:07 18° S 23:12:05 10° SE
Cosmos 1844 Rocket 3.6 23:05:28 10° SSW 23:10:59 54° WNW 23:16:29 10° N
Helios 1A 2.9 23:07:16 10° SSE 23:11:24 66° ENE 23:15:30 10° N
Cosmos 1933 4.3 23:10:03 10° NNW 23:14:02 51° W 23:17:59 10° S
Spot 1 4.4 23:10:25 10° S 23:14:35 70° WSW 23:18:58 10° NNW
Cosmos 2278 Rocket 2.2 23:10:01 10° S 23:15:37 65° ESE 23:21:13 10° NNE
NOAA 12 4.2 23:12:38 10° S 23:17:58 83° WSW 23:23:15 10° NNW
Cosmos 389 Rocket 3.9 23:15:07 10° NNW 23:18:26 40° W 23:21:48 10° SSW
BLOCK DM-SL R/B 3.7 23:16:21 10° WSW 23:19:59 15° SSW 23:21:56 10° SSE
CZ-4B R/B 4.5 23:15:56 10° NNE 23:20:16 71° ESE 23:24:36 10° S
Cosmos 1825 4.2 23:21:41 13° ENE 23:21:41 13° ENE 23:22:35 10° ENE
Cosmos 1844 4.3 23:16:40 10° SSW 23:22:17 61° WNW 23:27:57 10° N
SJ-6B 4.3 23:19:02 10° S 23:22:50 38° W 23:26:34 10° NNW
OAO 3 Copernicus 4.3 23:18:14 10° NW 23:23:20 85° NE 23:26:47 21° ESE
ERBS 4.4 23:22:04 10° NNE 23:23:51 13° NE 23:24:11 13° ENE
Sylda 4400 4.4 23:23:41 10° WSW 23:27:26 59° S 23:34:00 18° E
Resurs 1-3 3.5 23:24:03 10° SSE 23:28:25 72° ENE 23:32:46 10° N
APEX 3.2 23:25:55 10° S 23:28:45 38° ESE 23:32:09 10° NE
Cosmos 2184 Rocket 4.0 23:24:42 10° S 23:30:52 89° W 23:37:01 10° N
Cosmos 1943 4.5 23:26:46 10° NW 23:31:58 40° WSW 23:37:10 10° S
COSMOS 2406 4.0 23:28:51 10° N 23:33:49 31° ENE 23:35:46 25° ESE
FUSE 4.2 23:35:22 10° WSW 23:40:43 71° NNW 23:45:07 15° ENE
Okean 1-7 3.8 23:36:47 10° NNW 23:41:00 52° W 23:45:16 10° S
ATLAS 3B CENTAUR R/B 2.4 23:41:14 10° SW 23:41:38 14° SSW 23:41:38 14° SSW
Cosmos 1452 Rocket 4.3 23:39:29 10° SSW 23:44:36 54° WNW 23:49:44 10° N
ARIANE 5 DEB (SYLDA) 4.4 23:06:35 10° W 23:48:52 56° SSW 23:52:55 29° SE
GPS 2-04 Rocket1 4.0 23:45:20 10° SSW 23:48:04 27° S 23:48:04 27° S
OAO 1 4.4 23:43:43 10° SW 23:49:11 67° SE 23:52:09 27° ENE
Lacrosse 5 2.0 23:44:57 10° SSW 23:49:49 47° ESE 23:53:50 15° NE
CENTAUR R/B 3.2 23:42:24 10° NNW 23:50:32 61° ENE 23:55:03 29° SE
Cosmos 2297 3.6 23:48:35 10° S 23:54:12 69° ESE 23:59:51 10° NNE
